UAE922 OMDB-HECA

Flight info

Callsign UAE922
Flight time 3h 20m
Altitude 38000
Route SENPA N571 ALPOB L768 VATIM L550 NOVPA N697 MENLI L677 CVO
Aircraft B77W/H-SDE1E2E3FGHIJ2J3J4J5M1RWXY/LB1D1

Departure

Time 2026-05-05 21:12
Airport Dubai International Airport (OMDB)

Arrival

Time 2026-05-06 00:33
Airport Cairo International Airport (HECA)
Time Latitude Longitude Altitude Speed Heading
2026-05-05 20:29 25.24479 55.37141 31 ft 0 kts 211°
2026-05-05 20:51 25.24497 55.37153 26 ft 4 kts 211°
2026-05-05 20:52 25.24519 55.37169 24 ft 4 kts 216°
2026-05-05 20:52 25.24538 55.37183 24 ft 4 kts 190°
2026-05-05 20:52 25.24558 55.37185 27 ft 4 kts 160°
2026-05-05 20:52 25.24572 55.37174 24 ft 4 kts 120°
2026-05-05 20:53 25.24584 55.37148 26 ft 3 kts 121°
2026-05-05 20:53 25.24586 55.37144 25 ft 0 kts 122°
2026-05-05 21:06 25.24565 55.37182 27 ft 9 kts 122°
2026-05-05 21:07 25.24529 55.37246 27 ft 10 kts 122°
2026-05-05 21:07 25.24494 55.37309 27 ft 10 kts 122°
2026-05-05 21:07 25.24458 55.37374 27 ft 10 kts 122°
2026-05-05 21:07 25.24421 55.37439 27 ft 10 kts 121°
2026-05-05 21:08 25.24384 55.37507 26 ft 10 kts 121°
2026-05-05 21:08 25.24346 55.37575 27 ft 10 kts 121°
2026-05-05 21:08 25.24308 55.37642 27 ft 10 kts 121°
2026-05-05 21:08 25.24271 55.37710 27 ft 10 kts 121°
2026-05-05 21:09 25.24258 55.37783 27 ft 10 kts 64°
2026-05-05 21:09 25.24322 55.37813 28 ft 10 kts 19°
2026-05-05 21:09 25.24383 55.37855 31 ft 10 kts 34°
2026-05-05 21:09 25.24443 55.37900 35 ft 11 kts 34°
2026-05-05 21:10 25.24512 55.37953 34 ft 17 kts 34°
2026-05-05 21:10 25.24645 55.38050 30 ft 22 kts 32°
2026-05-05 21:10 25.24728 55.38104 34 ft 9 kts 17°
2026-05-05 21:10 25.24780 55.38074 35 ft 10 kts 303°
2026-05-05 21:11 25.24787 55.38062 35 ft 0 kts 302°
2026-05-05 21:11 25.24856 55.37941 35 ft 48 kts 303°
2026-05-05 21:12 25.25187 55.37340 36 ft 132 kts 302°
2026-05-05 21:12 25.25786 55.36257 86 ft 190 kts 302°
2026-05-05 21:12 25.26483 55.35010 838 ft 192 kts 303°
2026-05-05 21:12 25.27202 55.33763 1553 ft 199 kts 303°
2026-05-05 21:13 25.27954 55.32405 2052 ft 214 kts 302°
2026-05-05 21:13 25.28757 55.30944 2521 ft 233 kts 302°
2026-05-05 21:13 25.29568 55.29277 2728 ft 262 kts 287°
2026-05-05 21:13 25.29794 55.27236 3287 ft 272 kts 274°
2026-05-05 21:14 25.29923 55.25131 4135 ft 276 kts 275°
2026-05-05 21:14 25.30075 55.23016 5071 ft 277 kts 276°
2026-05-05 21:14 25.30239 55.20876 5952 ft 281 kts 276°
2026-05-05 21:14 25.30407 55.18719 6807 ft 284 kts 276°
2026-05-05 21:15 25.30404 55.16520 7597 ft 289 kts 267°
2026-05-05 21:15 25.30290 55.15047 8142 ft 292 kts 265°
2026-05-05 21:15 25.30080 55.12804 8997 ft 295 kts 264°
2026-05-05 21:15 25.29868 55.10533 9831 ft 299 kts 264°
2026-05-05 21:16 25.29665 55.08224 10545 ft 308 kts 265°
2026-05-05 21:16 25.29460 55.05769 10839 ft 335 kts 265°
2026-05-05 21:16 25.29247 55.03104 11059 ft 363 kts 265°
2026-05-05 21:16 25.29024 55.00234 11412 ft 384 kts 265°
2026-05-05 21:17 25.28793 54.97259 12223 ft 392 kts 265°
2026-05-05 21:17 25.28563 54.94231 13106 ft 398 kts 266°
2026-05-05 21:17 25.28444 54.91161 14026 ft 401 kts 269°
2026-05-05 21:17 25.28383 54.88064 14916 ft 404 kts 269°
2026-05-05 21:18 25.28313 54.84955 15804 ft 407 kts 269°
2026-05-05 21:18 25.28229 54.81810 16645 ft 412 kts 269°
2026-05-05 21:18 25.28136 54.78636 17473 ft 416 kts 269°
2026-05-05 21:18 25.28051 54.75424 18285 ft 420 kts 270°
2026-05-05 21:19 25.28403 54.72215 19003 ft 423 kts 284°
2026-05-05 21:19 25.29226 54.69134 19753 ft 425 kts 287°
2026-05-05 21:19 25.30108 54.66001 20509 ft 429 kts 287°
2026-05-05 21:19 25.30968 54.62833 21250 ft 432 kts 286°
2026-05-05 21:20 25.31797 54.59628 21987 ft 435 kts 285°
2026-05-05 21:20 25.32612 54.56381 22704 ft 439 kts 285°
2026-05-05 21:20 25.33427 54.53116 23400 ft 442 kts 285°
2026-05-05 21:20 25.34286 54.49840 23964 ft 446 kts 286°
2026-05-05 21:21 25.35183 54.46552 24567 ft 447 kts 286°
2026-05-05 21:21 25.36090 54.43257 25160 ft 449 kts 286°
2026-05-05 21:21 25.36998 54.39942 25740 ft 451 kts 285°
2026-05-05 21:21 25.37905 54.36607 26306 ft 454 kts 285°
2026-05-05 21:22 25.38811 54.33257 26846 ft 456 kts 285°
2026-05-05 21:22 25.39721 54.29882 27377 ft 459 kts 285°
2026-05-05 21:22 25.40625 54.26488 27899 ft 461 kts 284°
2026-05-05 21:22 25.41484 54.23057 28400 ft 463 kts 284°
2026-05-05 21:23 25.42312 54.19646 28855 ft 465 kts 283°
2026-05-05 21:23 25.43153 54.16178 29296 ft 467 kts 284°
2026-05-05 21:23 25.44007 54.12697 29721 ft 469 kts 284°
2026-05-05 21:23 25.44865 54.09216 30146 ft 469 kts 284°
2026-05-05 21:24 25.45718 54.05740 30647 ft 467 kts 283°
2026-05-05 21:24 25.46561 54.02282 31180 ft 464 kts 283°
2026-05-05 21:24 25.47398 53.98841 31700 ft 462 kts 283°
2026-05-05 21:24 25.48229 53.95417 32194 ft 460 kts 283°
2026-05-05 21:25 25.49057 53.92006 32670 ft 458 kts 282°
2026-05-05 21:25 25.49872 53.88647 33154 ft 457 kts 282°
2026-05-05 21:25 25.50703 53.85216 33644 ft 455 kts 282°
2026-05-05 21:25 25.51510 53.81883 34070 ft 453 kts 282°
2026-05-05 21:26 25.52334 53.78476 34459 ft 452 kts 282°
2026-05-05 21:26 25.53146 53.75116 34842 ft 451 kts 282°
2026-05-05 21:26 25.53939 53.71803 35223 ft 449 kts 282°
2026-05-05 21:26 25.54732 53.68454 35592 ft 448 kts 282°
2026-05-05 21:27 25.55520 53.65118 35963 ft 447 kts 282°
2026-05-05 21:27 25.56304 53.61794 36331 ft 446 kts 282°
2026-05-05 21:27 25.57087 53.58476 36696 ft 445 kts 281°
2026-05-05 21:27 25.57868 53.55165 37047 ft 443 kts 281°
2026-05-05 21:28 25.58647 53.51859 37404 ft 442 kts 281°
2026-05-05 21:28 25.59421 53.48570 37698 ft 442 kts 281°
2026-05-05 21:28 25.60983 53.41928 37771 ft 446 kts 281°
2026-05-05 21:29 25.62543 53.35320 37764 ft 440 kts 281°
2026-05-05 21:29 25.64079 53.28832 37778 ft 437 kts 281°
2026-05-05 21:30 25.65618 53.22307 37773 ft 437 kts 281°
2026-05-05 21:30 25.67150 53.15792 37772 ft 437 kts 281°
2026-05-05 21:31 25.68682 53.09267 37767 ft 438 kts 281°
2026-05-05 21:31 25.70324 53.02753 37771 ft 440 kts 285°
2026-05-05 21:32 25.72796 52.96502 37775 ft 445 kts 293°
2026-05-05 21:32 25.75691 52.90460 37774 ft 446 kts 293°
2026-05-05 21:33 25.78597 52.84380 37768 ft 446 kts 293°
2026-05-05 21:33 25.81478 52.78289 37766 ft 446 kts 292°
2026-05-05 21:34 25.84350 52.72193 37771 ft 445 kts 292°
2026-05-05 21:34 25.87219 52.66094 37767 ft 444 kts 292°
2026-05-05 21:35 25.90076 52.60011 37770 ft 444 kts 292°
2026-05-05 21:35 25.92815 52.53887 37767 ft 442 kts 291°
2026-05-05 21:36 25.95517 52.47740 37766 ft 442 kts 291°
2026-05-05 21:36 25.98233 52.41607 37767 ft 442 kts 291°
2026-05-05 21:37 26.00939 52.35517 37768 ft 442 kts 291°
2026-05-05 21:37 26.03673 52.29379 37767 ft 442 kts 291°
2026-05-05 21:38 26.06403 52.23240 37768 ft 443 kts 291°
2026-05-05 21:38 26.09132 52.17088 37770 ft 443 kts 291°
2026-05-05 21:39 26.11853 52.10945 37760 ft 443 kts 290°
2026-05-05 21:39 26.14577 52.04788 37756 ft 443 kts 290°
2026-05-05 21:40 26.17280 51.98673 37763 ft 443 kts 291°
2026-05-05 21:40 26.20052 51.92538 37757 ft 443 kts 291°
2026-05-05 21:41 26.22787 51.86370 37766 ft 443 kts 290°
2026-05-05 21:41 26.25508 51.80207 37765 ft 443 kts 290°
2026-05-05 21:42 26.28254 51.74052 37763 ft 443 kts 290°
2026-05-05 21:42 26.31001 51.67900 37762 ft 443 kts 290°
2026-05-05 21:43 26.33718 51.61794 37757 ft 443 kts 290°
2026-05-05 21:43 26.36452 51.55642 37754 ft 442 kts 290°
2026-05-05 21:44 26.38880 51.49386 37757 ft 436 kts 284°
2026-05-05 21:44 26.40870 51.42992 37756 ft 436 kts 284°
2026-05-05 21:45 26.42891 51.36608 37755 ft 436 kts 284°
2026-05-05 21:45 26.44973 51.30239 37750 ft 437 kts 284°
2026-05-05 21:46 26.47048 51.23870 37749 ft 436 kts 284°
2026-05-05 21:46 26.49062 51.17533 37750 ft 436 kts 284°
2026-05-05 21:47 26.51086 51.11136 37755 ft 436 kts 284°
2026-05-05 21:47 26.53112 51.04743 37751 ft 436 kts 284°
2026-05-05 21:48 26.55136 50.98350 37754 ft 437 kts 283°
2026-05-05 21:48 26.57159 50.91952 37754 ft 437 kts 283°
2026-05-05 21:49 26.59144 50.85541 37753 ft 436 kts 283°
2026-05-05 21:49 26.61091 50.79166 37758 ft 436 kts 283°
2026-05-05 21:50 26.63053 50.72752 37762 ft 436 kts 283°
2026-05-05 21:50 26.65004 50.66346 37756 ft 435 kts 283°
2026-05-05 21:51 26.66909 50.59935 37756 ft 434 kts 282°
2026-05-05 21:51 26.68804 50.53543 37754 ft 433 kts 282°
2026-05-05 21:52 26.71549 50.43938 37754 ft 430 kts 280°
2026-05-05 21:53 26.73171 50.37514 37752 ft 429 kts 280°
2026-05-05 21:53 26.74816 50.31098 37757 ft 429 kts 280°
2026-05-05 21:54 26.76510 50.24706 37750 ft 430 kts 282°
2026-05-05 21:54 26.78414 50.18397 37756 ft 431 kts 283°
2026-05-05 21:55 26.80340 50.12053 37754 ft 431 kts 282°
2026-05-05 21:55 26.82235 50.05689 37735 ft 431 kts 282°
2026-05-05 21:56 26.84120 49.99325 37735 ft 431 kts 282°
2026-05-05 21:56 26.86010 49.92941 37734 ft 431 kts 282°
2026-05-05 21:57 26.87897 49.86559 37732 ft 431 kts 282°
2026-05-05 21:57 26.89780 49.80176 37730 ft 431 kts 282°
2026-05-05 21:58 26.91660 49.73792 37729 ft 431 kts 282°
2026-05-05 21:58 26.93527 49.67440 37724 ft 431 kts 282°
2026-05-05 21:59 26.95398 49.61060 37724 ft 431 kts 282°
2026-05-05 21:59 26.97267 49.54677 37718 ft 430 kts 282°
2026-05-05 22:00 26.99129 49.48304 37725 ft 430 kts 282°
2026-05-05 22:00 27.01087 49.41956 37734 ft 433 kts 285°
2026-05-05 22:01 27.03826 49.35857 37736 ft 440 kts 292°
2026-05-05 22:01 27.06346 49.30911 37737 ft 439 kts 292°
2026-05-05 22:02 27.09364 49.24955 37743 ft 439 kts 291°
2026-05-05 22:02 27.12847 49.18019 37744 ft 438 kts 291°
2026-05-05 22:03 27.15331 49.13055 37746 ft 437 kts 291°
2026-05-05 22:03 27.18305 49.07104 37750 ft 437 kts 291°
2026-05-05 22:04 27.21278 49.01151 37754 ft 436 kts 291°
2026-05-05 22:04 27.24249 48.95206 37761 ft 436 kts 291°
2026-05-05 22:05 27.27222 48.89263 37768 ft 436 kts 291°
2026-05-05 22:05 27.30190 48.83319 37766 ft 436 kts 291°
2026-05-05 22:06 27.33156 48.77368 37774 ft 436 kts 291°
2026-05-05 22:06 27.36118 48.71416 37784 ft 436 kts 291°
2026-05-05 22:07 27.39076 48.65465 37782 ft 436 kts 291°
2026-05-05 22:07 27.42033 48.59509 37792 ft 436 kts 291°
2026-05-05 22:08 27.44966 48.53591 37796 ft 435 kts 290°
2026-05-05 22:08 27.47914 48.47634 37801 ft 435 kts 290°
2026-05-05 22:09 27.50861 48.41671 37800 ft 435 kts 290°
2026-05-05 22:09 27.53803 48.35710 37807 ft 435 kts 290°
2026-05-05 22:10 27.56748 48.29735 37805 ft 435 kts 290°
2026-05-05 22:10 27.59667 48.23798 37811 ft 435 kts 290°
2026-05-05 22:11 27.62594 48.17823 37813 ft 435 kts 290°
2026-05-05 22:11 27.65517 48.11850 37815 ft 435 kts 290°
2026-05-05 22:12 27.68444 48.05862 37818 ft 435 kts 290°
2026-05-05 22:12 27.71360 47.99892 37824 ft 434 kts 290°
2026-05-05 22:13 27.74257 47.93956 37825 ft 434 kts 290°
2026-05-05 22:13 27.77165 47.87985 37829 ft 434 kts 290°
2026-05-05 22:14 27.80071 47.82012 37832 ft 433 kts 290°
2026-05-05 22:14 27.82968 47.76049 37838 ft 433 kts 289°
2026-05-05 22:15 27.85403 47.69920 37838 ft 422 kts 281°
2026-05-05 22:15 27.87305 47.63691 37830 ft 422 kts 281°
2026-05-05 22:16 27.89227 47.57417 37853 ft 422 kts 281°
2026-05-05 22:16 27.91163 47.51127 37843 ft 423 kts 281°
2026-05-05 22:17 27.93103 47.44834 37857 ft 424 kts 281°
2026-05-05 22:17 27.95027 47.38581 37856 ft 424 kts 281°
2026-05-05 22:18 27.96963 47.32279 37851 ft 424 kts 281°
2026-05-05 22:18 27.98894 47.25981 37858 ft 424 kts 281°
2026-05-05 22:19 28.00822 47.19681 37860 ft 423 kts 281°
2026-05-05 22:19 28.02746 47.13381 37869 ft 423 kts 281°
2026-05-05 22:20 28.04666 47.07082 37874 ft 423 kts 281°
2026-05-05 22:20 28.06584 47.00779 37873 ft 423 kts 281°
2026-05-05 22:21 28.08494 46.94491 37883 ft 421 kts 281°
2026-05-05 22:21 28.10396 46.88219 37878 ft 420 kts 281°
2026-05-05 22:22 28.12401 46.82042 37888 ft 421 kts 283°
2026-05-05 22:22 28.14502 46.75839 37888 ft 421 kts 282°
2026-05-05 22:23 28.16586 46.69640 37897 ft 421 kts 282°
2026-05-05 22:23 28.18654 46.63433 37896 ft 421 kts 282°
2026-05-05 22:24 28.20717 46.57211 37899 ft 421 kts 282°
2026-05-05 22:24 28.22763 46.51031 37905 ft 422 kts 282°
2026-05-05 22:25 28.24822 46.44798 37918 ft 422 kts 282°
2026-05-05 22:25 28.26881 46.38560 37909 ft 422 kts 282°
2026-05-05 22:26 28.28934 46.32326 37910 ft 422 kts 282°
2026-05-05 22:26 28.30985 46.26089 37912 ft 421 kts 282°
2026-05-05 22:27 28.33030 46.19855 37913 ft 421 kts 282°
2026-05-05 22:27 28.35073 46.13621 37914 ft 421 kts 282°
2026-05-05 22:28 28.37206 46.07417 37912 ft 423 kts 284°
2026-05-05 22:28 28.39532 46.01266 37918 ft 424 kts 285°
2026-05-05 22:29 28.41851 45.95149 37911 ft 424 kts 284°
2026-05-05 22:29 28.44161 45.88978 37914 ft 424 kts 284°
2026-05-05 22:30 28.46453 45.82806 37917 ft 424 kts 284°
2026-05-05 22:30 28.48742 45.76620 37923 ft 424 kts 284°
2026-05-05 22:31 28.51029 45.70430 37926 ft 425 kts 284°
2026-05-05 22:31 28.53316 45.64232 37923 ft 425 kts 284°
2026-05-05 22:32 28.55604 45.58022 37923 ft 426 kts 284°
2026-05-05 22:32 28.57875 45.51846 37931 ft 426 kts 284°
2026-05-05 22:33 28.60159 45.45625 37926 ft 426 kts 284°
2026-05-05 22:33 28.62438 45.39410 37929 ft 425 kts 284°
2026-05-05 22:34 28.64713 45.33194 37931 ft 425 kts 284°
2026-05-05 22:34 28.66981 45.26986 37935 ft 424 kts 284°
2026-05-05 22:35 28.69251 45.20760 37936 ft 424 kts 284°
2026-05-05 22:35 28.71510 45.14557 37938 ft 424 kts 284°
2026-05-05 22:36 28.73763 45.08357 37937 ft 424 kts 284°
2026-05-05 22:36 28.75999 45.02194 37942 ft 423 kts 284°
2026-05-05 22:37 28.78251 44.95977 37937 ft 423 kts 283°
2026-05-05 22:37 28.80494 44.89775 37951 ft 423 kts 283°
2026-05-05 22:38 28.82734 44.83568 37945 ft 423 kts 283°
2026-05-05 22:38 28.84859 44.77374 37950 ft 417 kts 278°
2026-05-05 22:39 28.86206 44.70993 37954 ft 411 kts 273°
2026-05-05 22:39 28.86857 44.64565 37957 ft 407 kts 269°
2026-05-05 22:40 28.87349 44.58110 37953 ft 408 kts 269°
2026-05-05 22:40 28.87845 44.51645 37953 ft 410 kts 269°
2026-05-05 22:41 28.88353 44.45161 37955 ft 410 kts 269°
2026-05-05 22:41 28.88865 44.38670 37964 ft 411 kts 269°
2026-05-05 22:42 28.89373 44.32216 37957 ft 411 kts 269°
2026-05-05 22:42 28.89880 44.25725 37951 ft 411 kts 269°
2026-05-05 22:43 28.90385 44.19230 37956 ft 410 kts 269°
2026-05-05 22:43 28.90885 44.12743 37959 ft 410 kts 269°
2026-05-05 22:44 28.91382 44.06257 37958 ft 409 kts 269°
2026-05-05 22:44 28.91874 43.99788 37962 ft 409 kts 269°
2026-05-05 22:45 28.92363 43.93323 37962 ft 409 kts 269°
2026-05-05 22:45 28.92848 43.86862 37962 ft 408 kts 269°
2026-05-05 22:46 28.93330 43.80407 37964 ft 408 kts 268°
2026-05-05 22:46 28.93809 43.73954 37965 ft 408 kts 268°
2026-05-05 22:47 28.94281 43.67543 37972 ft 408 kts 268°
2026-05-05 22:47 28.94755 43.61083 37966 ft 408 kts 268°
2026-05-05 22:48 28.95225 43.54624 37968 ft 408 kts 268°
2026-05-05 22:48 28.95612 43.49259 37967 ft 408 kts 268°
2026-05-05 22:49 28.96070 43.42804 37973 ft 408 kts 268°
2026-05-05 22:49 28.96525 43.36347 37977 ft 408 kts 268°
2026-05-05 22:50 28.96978 43.29885 37977 ft 408 kts 268°
2026-05-05 22:50 28.97429 43.23421 37983 ft 408 kts 268°
2026-05-05 22:51 28.97875 43.16965 37981 ft 407 kts 268°
2026-05-05 22:51 28.98315 43.10562 37985 ft 407 kts 268°
2026-05-05 22:52 28.98754 43.04120 37989 ft 407 kts 268°
2026-05-05 22:52 28.99191 42.97681 37990 ft 407 kts 268°
2026-05-05 22:53 28.99624 42.91238 37997 ft 406 kts 268°
2026-05-05 22:53 29.00053 42.84802 37997 ft 406 kts 268°
2026-05-05 22:54 29.00479 42.78374 37999 ft 406 kts 268°
2026-05-05 22:54 29.00903 42.71943 38003 ft 405 kts 268°
2026-05-05 22:55 29.01323 42.65516 38001 ft 405 kts 268°
2026-05-05 22:55 29.01736 42.59142 37999 ft 405 kts 268°
2026-05-05 22:56 29.02149 42.52730 38001 ft 404 kts 268°
2026-05-05 22:56 29.02558 42.46322 38003 ft 404 kts 268°
2026-05-05 22:57 29.02963 42.39922 38014 ft 404 kts 268°
2026-05-05 22:57 29.03367 42.33514 38014 ft 404 kts 268°
2026-05-05 22:58 29.03767 42.27115 38012 ft 403 kts 268°
2026-05-05 22:58 29.04163 42.20721 38012 ft 403 kts 268°
2026-05-05 22:59 29.04557 42.14334 38013 ft 403 kts 268°
2026-05-05 22:59 29.04949 42.07945 38024 ft 402 kts 268°
2026-05-05 23:00 29.05529 41.98413 38020 ft 402 kts 268°
2026-05-05 23:00 29.05913 41.92030 38023 ft 403 kts 268°
2026-05-05 23:01 29.06298 41.85644 38021 ft 402 kts 268°
2026-05-05 23:01 29.06680 41.79267 38036 ft 402 kts 268°
2026-05-05 23:02 29.07060 41.72876 38019 ft 402 kts 268°
2026-05-05 23:02 29.07435 41.66500 38029 ft 402 kts 268°
2026-05-05 23:03 29.07809 41.60114 38037 ft 402 kts 267°
2026-05-05 23:03 29.08177 41.53768 38038 ft 403 kts 267°
2026-05-05 23:04 29.08545 41.47372 38041 ft 403 kts 267°
2026-05-05 23:04 29.08909 41.40968 38038 ft 403 kts 267°
2026-05-05 23:05 29.09264 41.34609 38046 ft 403 kts 267°
2026-05-05 23:05 29.09617 41.28196 38046 ft 404 kts 267°
2026-05-05 23:06 29.09965 41.21800 38048 ft 404 kts 267°
2026-05-05 23:06 29.10314 41.15362 38047 ft 405 kts 267°
2026-05-05 23:07 29.10660 41.08939 38051 ft 405 kts 267°
2026-05-05 23:07 29.11003 41.02501 38051 ft 405 kts 267°
2026-05-05 23:08 29.11343 40.96066 38056 ft 405 kts 267°
2026-05-05 23:08 29.11680 40.89636 38060 ft 405 kts 267°
2026-05-05 23:09 29.12013 40.83198 38058 ft 406 kts 267°
2026-05-05 23:09 29.12341 40.76806 38059 ft 405 kts 267°
2026-05-05 23:10 29.12669 40.70365 38065 ft 405 kts 266°
2026-05-05 23:10 29.12994 40.63925 38065 ft 405 kts 266°
2026-05-05 23:11 29.13277 40.57476 38067 ft 404 kts 264°
2026-05-05 23:11 29.13112 40.51077 38068 ft 402 kts 262°
2026-05-05 23:12 29.12886 40.44690 38068 ft 402 kts 262°
2026-05-05 23:12 29.12667 40.38330 38068 ft 403 kts 262°
2026-05-05 23:13 29.12450 40.31936 38074 ft 403 kts 262°
2026-05-05 23:13 29.12233 40.25521 38071 ft 404 kts 262°
2026-05-05 23:14 29.12013 40.19099 38066 ft 404 kts 262°
2026-05-05 23:14 29.11789 40.12673 38070 ft 404 kts 262°
2026-05-05 23:15 29.11561 40.06255 38070 ft 404 kts 262°
2026-05-05 23:15 29.11331 39.99814 38068 ft 404 kts 262°
2026-05-05 23:16 29.11099 39.93394 38073 ft 404 kts 262°
2026-05-05 23:16 29.10936 39.86958 38061 ft 405 kts 264°
2026-05-05 23:17 29.10986 39.80509 38069 ft 405 kts 265°
2026-05-05 23:17 29.11048 39.74110 38067 ft 405 kts 264°
2026-05-05 23:18 29.11084 39.67668 38078 ft 405 kts 264°
2026-05-05 23:18 29.11104 39.61229 38069 ft 405 kts 264°
2026-05-05 23:19 29.11118 39.54775 38072 ft 406 kts 264°
2026-05-05 23:19 29.11129 39.48318 38067 ft 406 kts 264°
2026-05-05 23:20 29.11137 39.41858 38076 ft 406 kts 264°
2026-05-05 23:20 29.11142 39.35395 38075 ft 406 kts 264°
2026-05-05 23:21 29.11144 39.28930 38075 ft 406 kts 264°
2026-05-05 23:21 29.11143 39.22466 38074 ft 407 kts 264°
2026-05-05 23:22 29.11139 39.15998 38079 ft 406 kts 264°
2026-05-05 23:22 29.11132 39.09576 38079 ft 407 kts 264°
2026-05-05 23:23 29.11122 39.03107 38081 ft 407 kts 264°
2026-05-05 23:23 29.11109 38.96642 38081 ft 407 kts 264°
2026-05-05 23:24 29.11091 38.90172 38087 ft 407 kts 264°
2026-05-05 23:24 29.11065 38.83690 38090 ft 407 kts 264°
2026-05-05 23:25 29.11036 38.77211 38078 ft 407 kts 264°
2026-05-05 23:25 29.11005 38.70761 38076 ft 408 kts 264°
2026-05-05 23:26 29.10971 38.64276 38082 ft 408 kts 264°
2026-05-05 23:26 29.10934 38.57775 38077 ft 409 kts 264°
2026-05-05 23:27 29.10894 38.51313 38080 ft 409 kts 264°
2026-05-05 23:27 29.10851 38.44801 38084 ft 410 kts 264°
2026-05-05 23:28 29.10804 38.38283 38076 ft 410 kts 264°
2026-05-05 23:28 29.10750 38.31755 38080 ft 410 kts 264°
2026-05-05 23:29 29.10690 38.25218 38079 ft 411 kts 264°
2026-05-05 23:29 29.10627 38.18675 38074 ft 411 kts 264°
2026-05-05 23:30 29.10573 38.13240 38076 ft 411 kts 264°
2026-05-05 23:30 29.10494 38.05591 38070 ft 411 kts 264°
2026-05-05 23:31 29.10423 37.99057 38070 ft 411 kts 264°
2026-05-05 23:31 29.10349 37.92568 38063 ft 411 kts 264°
2026-05-05 23:32 29.10271 37.86035 38065 ft 411 kts 264°
2026-05-05 23:32 29.10190 37.79507 38061 ft 411 kts 264°
2026-05-05 23:33 29.10106 37.72974 38064 ft 411 kts 264°
2026-05-05 23:33 29.10019 37.66430 38058 ft 411 kts 264°
2026-05-05 23:34 29.09929 37.59884 38066 ft 412 kts 264°
2026-05-05 23:34 29.09835 37.53328 38056 ft 412 kts 264°
2026-05-05 23:35 29.09759 37.46809 38065 ft 413 kts 264°
2026-05-05 23:35 29.09721 37.40236 38059 ft 413 kts 264°
2026-05-05 23:36 29.09682 37.33655 38056 ft 414 kts 264°
2026-05-05 23:36 29.09636 37.27065 38059 ft 415 kts 264°
2026-05-05 23:37 29.09584 37.20475 38062 ft 415 kts 264°
2026-05-05 23:37 29.09538 37.14995 38065 ft 415 kts 264°
2026-05-05 23:38 29.09471 37.07330 38066 ft 415 kts 264°
2026-05-05 23:38 29.09419 37.01801 38056 ft 415 kts 264°
2026-05-05 23:39 29.09354 36.95205 38062 ft 414 kts 264°
2026-05-05 23:39 29.09287 36.88662 38057 ft 414 kts 264°
2026-05-05 23:40 29.09215 36.82051 38051 ft 419 kts 264°
2026-05-05 23:40 29.09137 36.75337 38065 ft 425 kts 264°
2026-05-05 23:41 29.09058 36.68545 38043 ft 428 kts 264°
2026-05-05 23:41 29.08976 36.61724 38047 ft 429 kts 264°
2026-05-05 23:42 29.08890 36.54901 38055 ft 429 kts 264°
2026-05-05 23:42 29.08801 36.48081 38055 ft 428 kts 264°
2026-05-05 23:43 29.08645 36.41333 38055 ft 426 kts 264°
2026-05-05 23:43 29.08447 36.34569 38055 ft 425 kts 264°
2026-05-05 23:44 29.08251 36.27806 38058 ft 425 kts 264°
2026-05-05 23:44 29.08058 36.21065 38056 ft 424 kts 264°
2026-05-05 23:45 29.07865 36.14326 38065 ft 424 kts 264°
2026-05-05 23:45 29.07668 36.07575 38057 ft 425 kts 264°
2026-05-05 23:46 29.07468 36.00821 38070 ft 425 kts 264°
2026-05-05 23:46 29.07265 35.94064 38070 ft 426 kts 264°
2026-05-05 23:47 29.07057 35.87292 38078 ft 426 kts 264°
2026-05-05 23:47 29.06848 35.80556 38077 ft 427 kts 264°
2026-05-05 23:48 29.06633 35.73774 38081 ft 427 kts 264°
2026-05-05 23:48 29.06416 35.66983 38083 ft 427 kts 264°
2026-05-05 23:49 29.06194 35.60198 38084 ft 428 kts 264°
2026-05-05 23:49 29.05968 35.53399 38088 ft 428 kts 264°
2026-05-05 23:50 29.05740 35.46636 38088 ft 428 kts 264°
2026-05-05 23:50 29.05508 35.39835 38080 ft 429 kts 264°
2026-05-05 23:51 29.05273 35.33024 38087 ft 429 kts 264°
2026-05-05 23:51 29.05032 35.26208 38071 ft 428 kts 264°
2026-05-05 23:52 29.04791 35.19416 38074 ft 428 kts 264°
2026-05-05 23:52 29.04545 35.12615 38069 ft 428 kts 264°
2026-05-05 23:53 29.04296 35.05813 38064 ft 428 kts 264°
2026-05-05 23:53 29.04043 34.99017 38068 ft 428 kts 264°
2026-05-05 23:54 29.03787 34.92205 38069 ft 429 kts 264°
2026-05-05 23:54 29.03528 34.85429 38065 ft 430 kts 264°
2026-05-05 23:55 29.03379 34.78590 38059 ft 431 kts 265°
2026-05-05 23:55 29.03370 34.71738 38061 ft 433 kts 270°
2026-05-05 23:56 29.04193 34.64889 38071 ft 437 kts 275°
2026-05-05 23:56 29.05734 34.58156 38079 ft 443 kts 282°
2026-05-05 23:57 29.07727 34.51469 38077 ft 445 kts 283°
2026-05-05 23:57 29.09739 34.44774 38079 ft 445 kts 282°
2026-05-05 23:58 29.11713 34.38089 38044 ft 438 kts 282°
2026-05-05 23:58 29.13642 34.31481 38099 ft 441 kts 282°
2026-05-05 23:59 29.15581 34.24807 38117 ft 447 kts 282°
2026-05-05 23:59 29.17550 34.18030 38110 ft 450 kts 282°
2026-05-06 00:00 29.19524 34.11230 38112 ft 451 kts 282°
2026-05-06 00:00 29.21498 34.04414 38108 ft 451 kts 282°
2026-05-06 00:01 29.23468 33.97596 38103 ft 450 kts 282°
2026-05-06 00:01 29.25430 33.90794 38107 ft 449 kts 282°
2026-05-06 00:02 29.27384 33.84009 38101 ft 448 kts 282°
2026-05-06 00:02 29.29318 33.77278 38110 ft 447 kts 282°
2026-05-06 00:03 29.31258 33.70510 38112 ft 447 kts 282°
2026-05-06 00:03 29.33194 33.63742 38101 ft 447 kts 282°
2026-05-06 00:04 29.35130 33.56958 38110 ft 447 kts 283°
2026-05-06 00:04 29.37061 33.50180 38105 ft 447 kts 283°
2026-05-06 00:05 29.39935 33.40066 38101 ft 446 kts 283°
2026-05-06 00:06 29.41857 33.33280 38099 ft 447 kts 283°
2026-05-06 00:06 29.43774 33.26498 38096 ft 447 kts 283°
2026-05-06 00:07 29.45678 33.19761 38080 ft 437 kts 283°
2026-05-06 00:07 29.46605 33.16481 38077 ft 426 kts 282°
2026-05-06 00:07 29.47506 33.13291 37754 ft 418 kts 282°
2026-05-06 00:07 29.48394 33.10128 37178 ft 415 kts 283°
2026-05-06 00:08 29.49276 33.06978 36454 ft 415 kts 283°
2026-05-06 00:08 29.50159 33.03816 35673 ft 417 kts 284°
2026-05-06 00:08 29.51050 33.00625 34835 ft 421 kts 284°
2026-05-06 00:08 29.51946 32.97415 33981 ft 425 kts 285°
2026-05-06 00:09 29.52854 32.94170 32962 ft 429 kts 285°
2026-05-06 00:09 29.53769 32.90895 31949 ft 432 kts 285°
2026-05-06 00:09 29.54691 32.87594 31022 ft 435 kts 285°
2026-05-06 00:09 29.55609 32.84303 30302 ft 432 kts 285°
2026-05-06 00:10 29.56512 32.81065 29486 ft 430 kts 285°
2026-05-06 00:10 29.57430 32.77763 28693 ft 427 kts 285°
2026-05-06 00:10 29.58316 32.74576 27988 ft 423 kts 285°
2026-05-06 00:10 29.59206 32.71372 27284 ft 419 kts 285°
2026-05-06 00:11 29.60076 32.68191 26581 ft 415 kts 284°
2026-05-06 00:11 29.60834 32.65007 25902 ft 411 kts 283°
2026-05-06 00:11 29.61554 32.61832 25239 ft 409 kts 283°
2026-05-06 00:11 29.62259 32.58678 24559 ft 406 kts 283°
2026-05-06 00:12 29.62958 32.55539 23888 ft 405 kts 283°
2026-05-06 00:12 29.63658 32.52409 23136 ft 403 kts 283°
2026-05-06 00:12 29.64355 32.49309 22439 ft 399 kts 283°
2026-05-06 00:12 29.65049 32.46225 21762 ft 396 kts 283°
2026-05-06 00:13 29.65735 32.43175 21119 ft 392 kts 283°
2026-05-06 00:13 29.66416 32.40153 20483 ft 389 kts 283°
2026-05-06 00:13 29.67090 32.37157 19863 ft 386 kts 283°
2026-05-06 00:13 29.67757 32.34184 19243 ft 383 kts 283°
2026-05-06 00:14 29.68421 32.31226 18615 ft 381 kts 283°
2026-05-06 00:14 29.69082 32.28280 17936 ft 379 kts 283°
2026-05-06 00:14 29.69727 32.25396 17302 ft 376 kts 283°
2026-05-06 00:14 29.70378 32.22485 16674 ft 373 kts 283°
2026-05-06 00:15 29.71021 32.19611 16065 ft 370 kts 283°
2026-05-06 00:15 29.71658 32.16759 15482 ft 367 kts 283°
2026-05-06 00:15 29.72288 32.13928 14897 ft 364 kts 283°
2026-05-06 00:15 29.72915 32.11110 14307 ft 362 kts 283°
2026-05-06 00:16 29.73539 32.08305 13692 ft 361 kts 283°
2026-05-06 00:16 29.74159 32.05513 13054 ft 360 kts 284°
2026-05-06 00:16 29.74776 32.02731 12446 ft 357 kts 284°
2026-05-06 00:16 29.75390 31.99967 11863 ft 356 kts 284°
2026-05-06 00:17 29.75999 31.97216 11291 ft 354 kts 284°
2026-05-06 00:17 29.76602 31.94494 10949 ft 346 kts 284°
2026-05-06 00:17 29.77184 31.91861 10800 ft 333 kts 284°
2026-05-06 00:17 29.77779 31.89344 10640 ft 316 kts 290°
2026-05-06 00:18 29.78871 31.87207 10513 ft 307 kts 308°
2026-05-06 00:18 29.80398 31.85543 10369 ft 300 kts 324°
2026-05-06 00:18 29.82302 31.84707 10261 ft 297 kts 346°
2026-05-06 00:18 29.84359 31.84484 10140 ft 290 kts 353°
2026-05-06 00:19 29.86324 31.84413 9925 ft 283 kts 356°
2026-05-06 00:19 29.88296 31.84593 9545 ft 285 kts
2026-05-06 00:19 29.90257 31.84907 9204 ft 284 kts
2026-05-06 00:19 29.92208 31.85231 8878 ft 282 kts
2026-05-06 00:20 29.94151 31.85553 8555 ft 281 kts
2026-05-06 00:20 29.96077 31.85868 8298 ft 277 kts
2026-05-06 00:20 29.97951 31.86172 8175 ft 268 kts
2026-05-06 00:20 29.99769 31.86466 8043 ft 260 kts
2026-05-06 00:21 30.01540 31.86753 7839 ft 254 kts
2026-05-06 00:21 30.03285 31.87032 7577 ft 252 kts
2026-05-06 00:21 30.05023 31.87307 7301 ft 252 kts
2026-05-06 00:21 30.06754 31.87575 7031 ft 250 kts
2026-05-06 00:22 30.08475 31.87837 6764 ft 249 kts
2026-05-06 00:22 30.10183 31.88094 6556 ft 245 kts
2026-05-06 00:22 30.11848 31.88342 6413 ft 238 kts
2026-05-06 00:22 30.13474 31.88584 6167 ft 235 kts
2026-05-06 00:23 30.15094 31.88821 5878 ft 234 kts
2026-05-06 00:23 30.16690 31.89050 5590 ft 234 kts
2026-05-06 00:23 30.18303 31.89275 5328 ft 233 kts
2026-05-06 00:23 30.19907 31.89491 5064 ft 232 kts
2026-05-06 00:24 30.21505 31.89694 4783 ft 229 kts
2026-05-06 00:24 30.23102 31.89679 4484 ft 229 kts 355°
2026-05-06 00:24 30.24666 31.89450 4206 ft 226 kts 347°
2026-05-06 00:24 30.26190 31.89020 3938 ft 225 kts 345°
2026-05-06 00:25 30.27579 31.88267 3603 ft 223 kts 318°
2026-05-06 00:25 30.28380 31.86770 3399 ft 220 kts 287°
2026-05-06 00:25 30.28837 31.85120 3039 ft 214 kts 305°
2026-05-06 00:25 30.29588 31.83670 3050 ft 217 kts 297°
2026-05-06 00:26 30.30116 31.81992 3210 ft 225 kts 283°
2026-05-06 00:26 30.30267 31.80209 3219 ft 223 kts 270°
2026-05-06 00:26 30.30064 31.78331 3224 ft 271 kts 259°
2026-05-06 00:26 30.29583 31.75856 3354 ft 344 kts 256°
2026-05-06 00:27 30.28903 31.73276 3461 ft 344 kts 254°
2026-05-06 00:27 30.28170 31.70628 3475 ft 347 kts 253°
2026-05-06 00:27 30.27373 31.67963 3436 ft 356 kts 250°
2026-05-06 00:27 30.26361 31.65376 3422 ft 346 kts 244°
2026-05-06 00:28 30.25263 31.63072 3243 ft 305 kts 241°
2026-05-06 00:28 30.24193 31.61158 3229 ft 266 kts 232°
2026-05-06 00:28 30.23393 31.60147 3118 ft 248 kts 227°
2026-05-06 00:28 30.22271 31.58747 2880 ft 226 kts 231°
2026-05-06 00:29 30.21328 31.57451 2791 ft 194 kts 232°
2026-05-06 00:29 30.20530 31.56349 2692 ft 166 kts 231°
2026-05-06 00:29 30.19788 31.55367 2558 ft 158 kts 232°
2026-05-06 00:29 30.19079 31.54413 2508 ft 156 kts 232°
2026-05-06 00:30 30.18364 31.53457 2417 ft 161 kts 231°
2026-05-06 00:30 30.17649 31.52500 2204 ft 154 kts 232°
2026-05-06 00:30 30.16967 31.51581 1942 ft 150 kts 232°
2026-05-06 00:30 30.16263 31.50633 1780 ft 155 kts 232°
2026-05-06 00:31 30.15554 31.49695 1586 ft 159 kts 231°
2026-05-06 00:31 30.14819 31.48714 1354 ft 163 kts 230°
2026-05-06 00:31 30.14072 31.47719 1090 ft 164 kts 231°
2026-05-06 00:31 30.13326 31.46718 866 ft 165 kts 230°
2026-05-06 00:32 30.12584 31.45719 583 ft 164 kts 230°
2026-05-06 00:32 30.11847 31.44742 382 ft 155 kts 230°
2026-05-06 00:32 30.11219 31.43901 379 ft 119 kts 229°
2026-05-06 00:32 30.10777 31.43310 380 ft 75 kts 229°
2026-05-06 00:33 30.10555 31.42972 377 ft 40 kts 246°
2026-05-06 00:33 30.10472 31.42694 379 ft 19 kts 254°
2026-05-06 00:33 30.10426 31.42554 379 ft 19 kts 233°
2026-05-06 00:33 30.10342 31.42437 379 ft 19 kts 230°
2026-05-06 00:34 30.10257 31.42322 379 ft 19 kts 229°
2026-05-06 00:34 30.10171 31.42208 379 ft 19 kts 229°
2026-05-06 00:34 30.10084 31.42094 379 ft 19 kts 227°
2026-05-06 00:34 30.09998 31.41980 379 ft 19 kts 230°
2026-05-06 00:35 30.09913 31.41864 379 ft 19 kts 231°
2026-05-06 00:35 30.09878 31.41773 379 ft 9 kts 295°
2026-05-06 00:35 30.09914 31.41710 379 ft 10 kts 301°
2026-05-06 00:35 30.09919 31.41629 379 ft 11 kts 258°
2026-05-06 00:36 30.09906 31.41540 379 ft 12 kts 261°
2026-05-06 00:36 30.09894 31.41441 379 ft 13 kts 262°
2026-05-06 00:36 30.09889 31.41333 379 ft 14 kts 270°
2026-05-06 00:36 30.09877 31.41216 379 ft 20 kts 238°
2026-05-06 00:37 30.09815 31.41031 379 ft 29 kts 259°
2026-05-06 00:37 30.09782 31.40838 379 ft 17 kts 262°
2026-05-06 00:37 30.09860 31.40682 379 ft 34 kts 321°
2026-05-06 00:37 30.10096 31.40449 379 ft 51 kts 321°
2026-05-06 00:38 30.10361 31.40190 379 ft 48 kts 320°
2026-05-06 00:38 30.10484 31.40132 379 ft 18 kts 23°
2026-05-06 00:38 30.10572 31.40233 379 ft 18 kts 50°
2026-05-06 00:38 30.10669 31.40313 379 ft 18 kts
2026-05-06 00:39 30.10783 31.40350 379 ft 18 kts 45°
2026-05-06 00:39 30.10864 31.40461 379 ft 18 kts 50°
2026-05-06 00:39 30.10946 31.40571 379 ft 18 kts 49°
2026-05-06 00:39 30.11052 31.40623 379 ft 18 kts 340°
2026-05-06 00:40 30.11137 31.40521 379 ft 18 kts 311°
2026-05-06 00:40 30.11233 31.40426 379 ft 18 kts 321°
2026-05-06 00:40 30.11302 31.40307 379 ft 18 kts 291°
2026-05-06 00:40 30.11282 31.40243 379 ft 10 kts 206°
2026-05-06 00:41 30.11239 31.40226 379 ft 2 kts 197°
2026-05-06 00:41 30.11237 31.40226 379 ft 0 kts 197°